Home   Weather   Auckland   Past weeks

Flag for New Zealand Past Weather in Auckland, New Zealand — Yesterday and Last 2 Weeks

Now
61 °F

Cool.


Feels Like: 61 °F
Forecast: 55 / 72 °F
Wind: 3 mph from East

Location: Auckland Airport

Current Time: Dec 6, 2016 at 3:55:52 am

Latest Report: Dec 6, 2016 at 3:30 am


Visibility: N/A

Pressure: 30.12 "Hg

Humidity: 94%

Dew Point: 59 °F

Location of AucklandLocation

Past Weather in Auckland — Graph

°F

Auckland Temperature Yesterday

Maximum temperature yesterday: 73 °F (at 1:00 pm)
Minimum temperature yesterday: 59 °F (at 5:30 am)
Average temperature yesterday: 66 °F

High & Low Weather Summary for the Past Weeks

 TemperatureHumidityPressure
High73 °F (Nov 24, 4:00 pm)100% (Nov 25, 1:30 pm)30.30 "Hg (Nov 25, 1:30 pm)
Low52 °F (Dec 1, 5:30 am)49% (Dec 3, 1:00 pm)29.62 "Hg (Nov 27, 2:00 pm)
Average62 °F75%29.97 "Hg
* Reported Nov 21 2:00 am — Dec 6 2:30 am, Auckland, Weather by CustomWeather, © 2016

Note: Actual official high and low records may vary slightly from our data, if they occured in-between our weather recording intervals... More about our weather records

Advertising

Auckland Weather History for the Previous 24 Hours

Scroll right to see more
 ConditionsComfort  
Time TempWeatherWind HumidityBarometerVisibility
2:30 am
Tue, Dec 6
61 °FCool.3 mph94%30.12 "HgN/A
2:00 am61 °FPassing clouds.1 mph94%30.12 "HgN/A
1:30 am63 °FPassing clouds.1 mph88%30.12 "HgN/A
1:00 am63 °FPassing clouds.2 mph94%30.12 "HgN/A
12:30 am63 °FPassing clouds.1 mph88%30.12 "HgN/A
12:00 am63 °FPassing clouds.3 mph88%30.12 "HgN/A
11:30 pm
Mon, Dec 5
63 °FMild.3 mph88%30.12 "HgN/A
11:00 pm63 °FMild.3 mph88%30.12 "HgN/A
10:30 pm63 °FMild.5 mph88%30.12 "HgN/A
10:00 pm64 °FPassing clouds.5 mph83%30.12 "HgN/A
9:30 pm64 °FPassing clouds.7 mph83%30.09 "HgN/A
9:00 pm64 °FMild.7 mph88%30.09 "HgN/A
8:30 pm66 °FMild.7 mph83%30.09 "HgN/A
8:00 pm68 °FMild.8 mph78%30.07 "HgN/A
7:30 pm68 °FMild.10 mph78%30.07 "HgN/A
7:00 pm70 °FMild.12 mph73%30.07 "HgN/A
6:30 pm72 °FMild.12 mph73%30.07 "HgN/A
6:00 pm72 °FMild.9 mph65%30.07 "HgN/A
5:30 pm72 °FMild.13 mph65%30.07 "HgN/A
5:00 pm72 °FMild.12 mph65%30.07 "HgN/A
4:30 pm72 °FMild.13 mph65%30.07 "HgN/A
4:00 pm73 °FMild.13 mph65%30.07 "HgN/A
3:30 pm73 °FMild.14 mph61%30.07 "HgN/A
3:00 pm73 °FMild.13 mph61%30.07 "HgN/A
2:30 pm73 °FMild.9 mph53%30.07 "HgN/A
2:00 pm73 °FPassing clouds.8 mph57%30.09 "HgN/A
1:30 pm73 °FMild.9 mph50%30.09 "HgN/A
1:00 pm73 °FPassing clouds.9 mph53%30.09 "HgN/A
12:30 pm72 °FScattered clouds.7 mph53%30.09 "HgN/A
12:00 pm72 °FMild.6 mph53%30.09 "HgN/A
11:30 am70 °FMild.5 mph53%30.09 "HgN/A
11:00 am70 °FMild.3 mph53%30.09 "HgN/A
10:30 am68 °FMild.3 mph64%30.09 "HgN/A
10:00 am66 °FMild.3 mph73%30.09 "HgN/A
9:30 am66 °FMild.3 mph73%30.09 "HgN/A
9:00 am64 °FMild.3 mph78%30.09 "HgN/A
8:30 am64 °FMild.5 mph83%30.09 "HgN/A
8:00 am63 °FMild.5 mph88%30.09 "HgN/A
7:30 am63 °FMild.3 mph83%30.09 "HgN/A
7:00 am61 °FScattered clouds.3 mph88%30.09 "HgN/A
6:30 am59 °FCool.3 mph94%30.09 "HgN/A
6:00 am59 °FPartly sunny.3 mph94%30.07 "HgN/A
5:30 am59 °FPartly cloudy.2 mph88%30.07 "HgN/A
5:00 am61 °FPassing clouds.3 mph83%30.07 "HgN/A
4:30 am61 °FPassing clouds.3 mph88%30.04 "HgN/A
4:00 am63 °FPassing clouds.3 mph83%30.04 "HgN/A
3:30 am63 °FMostly cloudy.2 mph83%30.04 "HgN/A
3:00 am63 °FMostly cloudy.1 mph83%30.04 "HgN/A
Weather by CustomWeather, © 2016

See weather overviewHow to use our weather pages